Tracking 19720 objects as of 26-Jun-2019
HD Live streaming from Space Station
objects crossing your sky now

COSMOS 1375 DEB

Track COSMOS 1375 DEB now!
10-day predictions


NORAD ID: 16379
Int'l Code: 1982-055T
Perigee: 957.9 km
Apogee: 998.8 km
Inclination: 65.8 °
Period: 104.5 minutes
Semi major axis: 7349 km
RCS: 0.1296 m2 (medium)
Launch date: June 6, 1982
Source: Commonwealth of Independent States (former USSR) (CIS)
Launch site: PLESETSK MISSILE AND SPACE COMPLEX (PKMTR)

Note: This is SATELLITE DEBRIS
aabbcc
Your satellite tracking list
Your tracking list is empty




NASA's NSSDC Master Catalog

Two Line Element Set (TLE):
1 16379U 82055T   19176.85483473 -.00000084 +00000-0 -28282-5 0  9993
2 16379 065.8362 074.0847 0027888 274.4334 213.8762 13.77937709273978
Source of the keplerian elements: AFSPC